Tracking 35331 objects as of 15-Sep-2026
HD Live streaming from Space Station
objects crossing your sky now

FREGAT DEB

Track FREGAT DEB now!
10-day predictions


NORAD ID: 46616
Int'l Code: 2011-037MG
Launch date: July 18, 2011
Source: Commonwealth of Independent States (former USSR) (CIS)
Launch site: TYURATAM MISSILE AND SPACE COMPLEX (TTMTR)

Note: This is SATELLITE DEBRIS
Your satellite tracking list
Your tracking list is empty




NASA's NSSDC Master Catalog

Two Line Element Set (TLE):
1 46616U 11037MG  21337.11264455 -.00105519  00000-0 -57057+0 0  9995
2 46616  50.5761   6.9546 1788676 142.7286 231.2194 10.35078672 44012
Source of the keplerian elements: AFSPC